Year,Month,Day,Hour,Minute,Value (Times are PST for temperature in C)
2010,08,14,00,00,22.20
2010,08,14,00,01,22.20
2010,08,14,00,02,22.20
2010,08,14,00,03,22.20
2010,08,14,00,04,22.20
2010,08,14,00,05,22.10
2010,08,14,00,06,22.10
2010,08,14,00,07,22.10
2010,08,14,00,08,22.10
2010,08,14,00,09,22.00
2010,08,14,00,10,21.90
2010,08,14,00,11,21.80
2010,08,14,00,12,21.80
2010,08,14,00,13,21.70
2010,08,14,00,14,21.60
2010,08,14,00,15,21.60
2010,08,14,00,16,21.60
2010,08,14,00,17,21.60
2010,08,14,00,18,21.60
2010,08,14,00,19,21.60
2010,08,14,00,20,21.70
2010,08,14,00,21,21.70
2010,08,14,00,22,21.80
2010,08,14,00,23,21.80
2010,08,14,00,24,21.80
2010,08,14,00,25,21.80
2010,08,14,00,26,21.70
2010,08,14,00,27,21.50
2010,08,14,00,28,21.40
2010,08,14,00,29,21.30
2010,08,14,00,30,21.20
2010,08,14,00,31,21.10
2010,08,14,00,32,21.10
2010,08,14,00,33,21.10
2010,08,14,00,34,21.10
2010,08,14,00,35,21.10
2010,08,14,00,36,21.20
2010,08,14,00,37,21.30
2010,08,14,00,38,21.40
2010,08,14,00,39,21.50
2010,08,14,00,40,21.50
2010,08,14,00,41,21.50
2010,08,14,00,42,21.40
2010,08,14,00,43,21.40
2010,08,14,00,44,21.30
2010,08,14,00,45,21.30
2010,08,14,00,46,21.30
2010,08,14,00,47,21.30
2010,08,14,00,48,21.30
2010,08,14,00,49,21.30
2010,08,14,00,50,21.30
2010,08,14,00,51,21.30
2010,08,14,00,52,21.30
2010,08,14,00,53,21.30
2010,08,14,00,54,21.30
2010,08,14,00,55,21.30
2010,08,14,00,56,21.40
2010,08,14,00,57,21.50
2010,08,14,00,58,21.60
2010,08,14,00,59,21.60
2010,08,14,01,00,21.70
2010,08,14,01,01,21.80
2010,08,14,01,02,21.90
2010,08,14,01,03,21.90
2010,08,14,01,04,21.90
2010,08,14,01,05,22.00
2010,08,14,01,06,22.00
2010,08,14,01,07,22.10
2010,08,14,01,08,22.10
2010,08,14,01,09,22.10
2010,08,14,01,10,22.10
2010,08,14,01,11,22.10
2010,08,14,01,12,22.00
2010,08,14,01,13,22.00
2010,08,14,01,14,21.90
2010,08,14,01,15,21.90
2010,08,14,01,16,21.80
2010,08,14,01,17,21.80
2010,08,14,01,18,21.70
2010,08,14,01,19,21.70
2010,08,14,01,20,21.70
2010,08,14,01,21,21.70
2010,08,14,01,22,21.70
2010,08,14,01,23,21.70
2010,08,14,01,24,21.70
2010,08,14,01,25,21.70
2010,08,14,01,26,21.70
2010,08,14,01,27,21.60
2010,08,14,01,28,21.60
2010,08,14,01,29,21.60
2010,08,14,01,30,21.60
2010,08,14,01,31,21.60
2010,08,14,01,32,21.60
2010,08,14,01,33,21.60
2010,08,14,01,34,21.70
2010,08,14,01,35,21.70
2010,08,14,01,36,21.70
2010,08,14,01,37,21.80
2010,08,14,01,38,21.80
2010,08,14,01,39,21.80
2010,08,14,01,40,21.80
2010,08,14,01,41,21.80
2010,08,14,01,42,21.80
2010,08,14,01,43,21.80
2010,08,14,01,44,21.80
2010,08,14,01,45,21.80
2010,08,14,01,46,21.80
2010,08,14,01,47,21.80
2010,08,14,01,48,21.80
2010,08,14,01,49,21.70
2010,08,14,01,50,21.70
2010,08,14,01,51,21.60
2010,08,14,01,52,21.60
2010,08,14,01,53,21.60
2010,08,14,01,54,21.60
2010,08,14,01,55,21.60
2010,08,14,01,56,21.60
2010,08,14,01,57,21.60
2010,08,14,01,58,21.60
2010,08,14,01,59,21.60
2010,08,14,02,00,21.60
2010,08,14,02,01,21.70
2010,08,14,02,02,21.70
2010,08,14,02,03,21.70
2010,08,14,02,04,21.70
2010,08,14,02,05,21.70
2010,08,14,02,06,21.70
2010,08,14,02,07,21.60
2010,08,14,02,08,21.50
2010,08,14,02,09,21.30
2010,08,14,02,10,21.20
2010,08,14,02,11,21.10
2010,08,14,02,12,21.00
2010,08,14,02,13,20.90
2010,08,14,02,14,20.80
2010,08,14,02,15,20.80
2010,08,14,02,16,20.80
2010,08,14,02,17,20.70
2010,08,14,02,18,20.60
2010,08,14,02,19,20.60
2010,08,14,02,20,20.50
2010,08,14,02,21,20.40
2010,08,14,02,22,20.40
2010,08,14,02,23,20.40
2010,08,14,02,24,20.30
2010,08,14,02,25,20.30
2010,08,14,02,26,20.20
2010,08,14,02,27,20.20
2010,08,14,02,28,20.20
2010,08,14,02,29,20.10
2010,08,14,02,30,20.00
2010,08,14,02,31,20.00
2010,08,14,02,32,19.90
2010,08,14,02,33,19.80
2010,08,14,02,34,19.70
2010,08,14,02,35,19.70
2010,08,14,02,36,19.60
2010,08,14,02,37,19.60
2010,08,14,02,38,19.70
2010,08,14,02,39,19.70
2010,08,14,02,40,19.70
2010,08,14,02,41,19.70
2010,08,14,02,42,19.70
2010,08,14,02,43,19.70
2010,08,14,02,44,19.60
2010,08,14,02,45,19.60
2010,08,14,02,46,19.50
2010,08,14,02,47,19.50
2010,08,14,02,48,19.50
2010,08,14,02,49,19.40
2010,08,14,02,50,19.30
2010,08,14,02,51,19.30
2010,08,14,02,52,19.20
2010,08,14,02,53,19.10
2010,08,14,02,54,19.10
2010,08,14,02,55,19.00
2010,08,14,02,56,19.00
2010,08,14,02,57,18.90
2010,08,14,02,58,18.90
2010,08,14,02,59,18.90
2010,08,14,03,00,18.90
2010,08,14,03,01,18.80
2010,08,14,03,02,18.80
2010,08,14,03,03,18.80
2010,08,14,03,04,18.70
2010,08,14,03,05,18.80
2010,08,14,03,06,18.80
2010,08,14,03,07,18.70
2010,08,14,03,08,18.70
2010,08,14,03,09,18.70
2010,08,14,03,10,18.60
2010,08,14,03,11,18.60
2010,08,14,03,12,18.50
2010,08,14,03,13,18.50
2010,08,14,03,14,18.40
2010,08,14,03,15,18.40
2010,08,14,03,16,18.40
2010,08,14,03,17,18.40
2010,08,14,03,18,18.40
2010,08,14,03,19,18.40
2010,08,14,03,20,18.40
2010,08,14,03,21,18.40
2010,08,14,03,22,18.50
2010,08,14,03,23,18.50
2010,08,14,03,24,18.50
2010,08,14,03,25,18.50
2010,08,14,03,26,18.50
2010,08,14,03,27,18.50
2010,08,14,03,28,18.60
2010,08,14,03,29,18.60
2010,08,14,03,30,18.60
2010,08,14,03,31,18.60
2010,08,14,03,32,18.60
2010,08,14,03,33,18.70
2010,08,14,03,34,18.70
2010,08,14,03,35,18.80
2010,08,14,03,36,18.80
2010,08,14,03,37,18.90
2010,08,14,03,38,18.90
2010,08,14,03,39,18.90
2010,08,14,03,40,18.90
2010,08,14,03,41,18.90
2010,08,14,03,42,18.90
2010,08,14,03,43,18.80
2010,08,14,03,44,18.80
2010,08,14,03,45,18.80
2010,08,14,03,46,18.80
2010,08,14,03,47,18.80
2010,08,14,03,48,18.70
2010,08,14,03,49,18.70
2010,08,14,03,50,18.70
2010,08,14,03,51,18.60
2010,08,14,03,52,18.60
2010,08,14,03,53,18.50
2010,08,14,03,54,18.50
2010,08,14,03,55,18.40
2010,08,14,03,56,18.40
2010,08,14,03,57,18.30
2010,08,14,03,58,18.30
2010,08,14,03,59,18.20
2010,08,14,04,00,18.20
2010,08,14,04,01,18.20
2010,08,14,04,02,18.20
2010,08,14,04,03,18.30
2010,08,14,04,04,18.30
2010,08,14,04,05,18.40
2010,08,14,04,06,18.50
2010,08,14,04,07,18.50
2010,08,14,04,08,18.60
2010,08,14,04,09,18.70
2010,08,14,04,10,18.80
2010,08,14,04,11,18.90
2010,08,14,04,12,19.00
2010,08,14,04,13,19.00
2010,08,14,04,14,19.10
2010,08,14,04,15,19.10
2010,08,14,04,16,19.20
2010,08,14,04,17,19.20
2010,08,14,04,18,19.10
2010,08,14,04,19,19.10
2010,08,14,04,20,19.00
2010,08,14,04,21,19.00
2010,08,14,04,22,18.90
2010,08,14,04,23,18.90
2010,08,14,04,24,18.90
2010,08,14,04,25,18.90
2010,08,14,04,26,18.90
2010,08,14,04,27,19.00
2010,08,14,04,28,19.00
2010,08,14,04,29,19.00
2010,08,14,04,30,19.10
2010,08,14,04,31,19.10
2010,08,14,04,32,19.10
2010,08,14,04,33,19.00
2010,08,14,04,34,19.00
2010,08,14,04,35,18.90
2010,08,14,04,36,18.90
2010,08,14,04,37,18.90
2010,08,14,04,38,18.80
2010,08,14,04,39,18.80
2010,08,14,04,40,18.70
2010,08,14,04,41,18.70
2010,08,14,04,42,18.60
2010,08,14,04,43,18.60
2010,08,14,04,44,18.50
2010,08,14,04,45,18.50
2010,08,14,04,46,18.40
2010,08,14,04,47,18.40
2010,08,14,04,48,18.40
2010,08,14,04,49,18.40
2010,08,14,04,50,18.40
2010,08,14,04,51,18.40
2010,08,14,04,52,18.30
2010,08,14,04,53,18.30
2010,08,14,04,54,18.20
2010,08,14,04,55,18.20
2010,08,14,04,56,18.10
2010,08,14,04,57,18.10
2010,08,14,04,58,18.10
2010,08,14,04,59,18.00
2010,08,14,05,00,18.00
2010,08,14,05,01,18.00
2010,08,14,05,02,17.90
2010,08,14,05,03,17.80
2010,08,14,05,04,17.80
2010,08,14,05,05,17.80
2010,08,14,05,06,17.80
2010,08,14,05,07,17.90
2010,08,14,05,08,17.90
2010,08,14,05,09,17.90
2010,08,14,05,10,17.90
2010,08,14,05,11,17.90
2010,08,14,05,12,18.00
2010,08,14,05,13,18.00
2010,08,14,05,14,18.00
2010,08,14,05,15,18.00
2010,08,14,05,16,17.90
2010,08,14,05,17,17.90
2010,08,14,05,18,17.90
2010,08,14,05,19,17.90
2010,08,14,05,20,17.90
2010,08,14,05,21,17.80
2010,08,14,05,22,17.80
2010,08,14,05,23,17.80
2010,08,14,05,24,17.80
2010,08,14,05,25,17.70
2010,08,14,05,26,17.70
2010,08,14,05,27,17.70
2010,08,14,05,28,17.70
2010,08,14,05,29,17.80
2010,08,14,05,30,17.80
2010,08,14,05,31,17.80
2010,08,14,05,32,17.80
2010,08,14,05,33,17.80
2010,08,14,05,34,17.70
2010,08,14,05,35,17.70
2010,08,14,05,36,17.70
2010,08,14,05,37,17.60
2010,08,14,05,38,17.60
2010,08,14,05,39,17.60
2010,08,14,05,40,17.50
2010,08,14,05,41,17.50
2010,08,14,05,42,17.40
2010,08,14,05,43,17.40
2010,08,14,05,44,17.40
2010,08,14,05,45,17.40
2010,08,14,05,46,17.40
2010,08,14,05,47,17.40
2010,08,14,05,48,17.40
2010,08,14,05,49,17.40
2010,08,14,05,50,17.40
2010,08,14,05,51,17.40
2010,08,14,05,52,17.30
2010,08,14,05,53,17.30
2010,08,14,05,54,17.30
2010,08,14,05,55,17.30
2010,08,14,05,56,17.30
2010,08,14,05,57,17.30
2010,08,14,05,58,17.20
2010,08,14,05,59,17.20
2010,08,14,06,00,17.20
2010,08,14,06,01,17.10
2010,08,14,06,02,17.10
2010,08,14,06,03,17.10
2010,08,14,06,04,17.10
2010,08,14,06,05,17.10
2010,08,14,06,06,17.10
2010,08,14,06,07,17.10
2010,08,14,06,08,17.10
2010,08,14,06,09,17.10
2010,08,14,06,10,17.10
2010,08,14,06,11,17.10
2010,08,14,06,12,17.10
2010,08,14,06,13,17.10
2010,08,14,06,14,17.10
2010,08,14,06,15,17.10
2010,08,14,06,16,17.10
2010,08,14,06,17,17.20
2010,08,14,06,18,17.20
2010,08,14,06,19,17.20
2010,08,14,06,20,17.20
2010,08,14,06,21,17.20
2010,08,14,06,22,17.20
2010,08,14,06,23,17.20
2010,08,14,06,24,17.20
2010,08,14,06,25,17.20
2010,08,14,06,26,17.20
2010,08,14,06,27,17.20
2010,08,14,06,28,17.20
2010,08,14,06,29,17.20
2010,08,14,06,30,17.20
2010,08,14,06,31,17.20
2010,08,14,06,32,17.20
2010,08,14,06,33,17.20
2010,08,14,06,34,17.20
2010,08,14,06,35,17.20
2010,08,14,06,36,17.20
2010,08,14,06,37,17.10
2010,08,14,06,38,17.10
2010,08,14,06,39,17.10
2010,08,14,06,40,17.10
2010,08,14,06,41,17.10
2010,08,14,06,42,17.10
2010,08,14,06,43,17.10
2010,08,14,06,44,17.10
2010,08,14,06,45,17.10
2010,08,14,06,46,17.10
2010,08,14,06,47,17.10
2010,08,14,06,48,17.20
2010,08,14,06,49,17.20
2010,08,14,06,50,17.20
2010,08,14,06,51,17.30
2010,08,14,06,52,17.30
2010,08,14,06,53,17.30
2010,08,14,06,54,17.40
2010,08,14,06,55,17.40
2010,08,14,06,56,17.40
2010,08,14,06,57,17.40
2010,08,14,06,58,17.40
2010,08,14,06,59,17.40
2010,08,14,07,00,17.40
2010,08,14,07,01,17.40
2010,08,14,07,02,17.40
2010,08,14,07,03,17.40
2010,08,14,07,04,17.40
2010,08,14,07,05,17.40
2010,08,14,07,06,17.40
2010,08,14,07,07,17.40
2010,08,14,07,08,17.50
2010,08,14,07,09,17.50
2010,08,14,07,10,17.50
2010,08,14,07,11,17.50
2010,08,14,07,12,17.50
2010,08,14,07,13,17.60
2010,08,14,07,14,17.60
2010,08,14,07,15,17.60
2010,08,14,07,16,17.70
2010,08,14,07,17,17.70
2010,08,14,07,18,17.70
2010,08,14,07,19,17.70
2010,08,14,07,20,17.80
2010,08,14,07,21,17.80
2010,08,14,07,22,17.80
2010,08,14,07,23,17.90
2010,08,14,07,24,17.90
2010,08,14,07,25,17.90
2010,08,14,07,26,18.00
2010,08,14,07,27,18.00
2010,08,14,07,28,18.10
2010,08,14,07,29,18.10
2010,08,14,07,30,18.20
2010,08,14,07,31,18.20
2010,08,14,07,32,18.30
2010,08,14,07,33,18.30
2010,08,14,07,34,18.40
2010,08,14,07,35,18.40
2010,08,14,07,36,18.50
2010,08,14,07,37,18.50
2010,08,14,07,38,18.60
2010,08,14,07,39,18.70
2010,08,14,07,40,18.80
2010,08,14,07,41,18.80
2010,08,14,07,42,18.90
2010,08,14,07,43,19.00
2010,08,14,07,44,19.20
2010,08,14,07,45,19.30
2010,08,14,07,46,19.40
2010,08,14,07,47,19.60
2010,08,14,07,48,19.70
2010,08,14,07,49,19.80
2010,08,14,07,50,19.90
2010,08,14,07,51,19.90
2010,08,14,07,52,20.00
2010,08,14,07,53,20.00
2010,08,14,07,54,20.10
2010,08,14,07,55,20.20
2010,08,14,07,56,20.20
2010,08,14,07,57,20.20
2010,08,14,07,58,20.30
2010,08,14,07,59,20.30
2010,08,14,08,00,20.40
2010,08,14,08,01,20.40
2010,08,14,08,02,20.50
2010,08,14,08,03,20.60
2010,08,14,08,04,20.70
2010,08,14,08,05,20.80
2010,08,14,08,06,20.90
2010,08,14,08,07,21.00
2010,08,14,08,08,21.10
2010,08,14,08,09,21.20
2010,08,14,08,10,21.30
2010,08,14,08,11,21.40
2010,08,14,08,12,21.50
2010,08,14,08,13,21.60
2010,08,14,08,14,21.70
2010,08,14,08,15,21.80
2010,08,14,08,16,21.90
2010,08,14,08,17,22.00
2010,08,14,08,18,22.20
2010,08,14,08,19,22.30
2010,08,14,08,20,22.40
2010,08,14,08,21,22.50
2010,08,14,08,22,22.60
2010,08,14,08,23,22.70
2010,08,14,08,24,22.70
2010,08,14,08,25,22.80
2010,08,14,08,26,22.80
2010,08,14,08,27,22.80
2010,08,14,08,28,22.80
2010,08,14,08,29,22.70
2010,08,14,08,30,22.60
2010,08,14,08,31,22.50
2010,08,14,08,32,22.40
2010,08,14,08,33,22.40
2010,08,14,08,34,22.30
2010,08,14,08,35,22.20
2010,08,14,08,36,22.10
2010,08,14,08,37,22.00
2010,08,14,08,38,22.00
2010,08,14,08,39,21.90
2010,08,14,08,40,21.90
2010,08,14,08,41,22.00
2010,08,14,08,42,22.00
2010,08,14,08,43,22.00
2010,08,14,08,44,22.00
2010,08,14,08,45,22.10
2010,08,14,08,46,22.20
2010,08,14,08,47,22.30
2010,08,14,08,48,22.40
2010,08,14,08,49,22.50
2010,08,14,08,50,22.50
2010,08,14,08,51,22.60
2010,08,14,08,52,22.60
2010,08,14,08,53,22.60
2010,08,14,08,54,22.60
2010,08,14,08,55,22.50
2010,08,14,08,56,22.40
2010,08,14,08,57,22.40
2010,08,14,08,58,22.30
2010,08,14,08,59,22.30
2010,08,14,09,00,22.30
2010,08,14,09,01,22.20
2010,08,14,09,02,22.30
2010,08,14,09,03,22.30
2010,08,14,09,04,22.30
2010,08,14,09,05,22.40
2010,08,14,09,06,22.40
2010,08,14,09,07,22.50
2010,08,14,09,08,22.50
2010,08,14,09,09,22.60
2010,08,14,09,10,22.70
2010,08,14,09,11,22.70
2010,08,14,09,12,22.80
2010,08,14,09,13,22.90
2010,08,14,09,14,22.90
2010,08,14,09,15,23.00
2010,08,14,09,16,23.10
2010,08,14,09,17,23.10
2010,08,14,09,18,23.20
2010,08,14,09,19,23.20
2010,08,14,09,20,23.20
2010,08,14,09,21,23.20
2010,08,14,09,22,23.20
2010,08,14,09,23,23.20
2010,08,14,09,24,23.20
2010,08,14,09,25,23.20
2010,08,14,09,26,23.30
2010,08,14,09,27,23.30
2010,08,14,09,28,23.30
2010,08,14,09,29,23.30
2010,08,14,09,30,23.20
2010,08,14,09,31,23.20
2010,08,14,09,32,23.20
2010,08,14,09,33,23.10
2010,08,14,09,34,23.10
2010,08,14,09,35,23.10
2010,08,14,09,36,23.00
2010,08,14,09,37,23.00
2010,08,14,09,38,23.00
2010,08,14,09,39,23.00
2010,08,14,09,40,22.90
2010,08,14,09,41,22.90
2010,08,14,09,42,22.90
2010,08,14,09,43,23.00
2010,08,14,09,44,23.10
2010,08,14,09,45,23.10
2010,08,14,09,46,23.20
2010,08,14,09,47,23.30
2010,08,14,09,48,23.30
2010,08,14,09,49,23.40
2010,08,14,09,50,23.40
2010,08,14,09,51,23.50
2010,08,14,09,52,23.60
2010,08,14,09,53,23.60
2010,08,14,09,54,23.60
2010,08,14,09,55,23.60
2010,08,14,09,56,23.70
2010,08,14,09,57,23.70
2010,08,14,09,58,23.80
2010,08,14,09,59,23.90
2010,08,14,10,00,24.00
2010,08,14,10,01,24.10
2010,08,14,10,02,24.20
2010,08,14,10,03,24.20
2010,08,14,10,04,24.30
2010,08,14,10,05,24.30
2010,08,14,10,06,24.40
2010,08,14,10,07,24.40
2010,08,14,10,08,24.50
2010,08,14,10,09,24.60
2010,08,14,10,10,24.70
2010,08,14,10,11,24.70
2010,08,14,10,12,24.70
2010,08,14,10,13,24.70
2010,08,14,10,14,24.70
2010,08,14,10,15,24.70
2010,08,14,10,16,24.70
2010,08,14,10,17,24.80
2010,08,14,10,18,24.80
2010,08,14,10,19,24.80
2010,08,14,10,20,24.80
2010,08,14,10,21,24.80
2010,08,14,10,22,24.80
2010,08,14,10,23,24.80
2010,08,14,10,24,24.80
2010,08,14,10,25,24.80
2010,08,14,10,26,24.80
2010,08,14,10,27,24.70
2010,08,14,10,28,24.70
2010,08,14,10,29,24.70
2010,08,14,10,30,24.70
2010,08,14,10,31,24.60
2010,08,14,10,32,24.60
2010,08,14,10,33,24.60
2010,08,14,10,34,24.60
2010,08,14,10,35,24.70
2010,08,14,10,36,24.70
2010,08,14,10,37,24.60
2010,08,14,10,38,24.60
2010,08,14,10,39,24.70
2010,08,14,10,40,24.70
2010,08,14,10,41,24.70
2010,08,14,10,42,24.70
2010,08,14,10,43,24.70
2010,08,14,10,44,24.70
2010,08,14,10,45,24.70
2010,08,14,10,46,24.70
2010,08,14,10,47,24.70
2010,08,14,10,48,24.80
2010,08,14,10,49,24.80
2010,08,14,10,50,24.80
2010,08,14,10,51,24.80
2010,08,14,10,52,24.90
2010,08,14,10,53,25.00
2010,08,14,10,54,25.10
2010,08,14,10,55,25.20
2010,08,14,10,56,25.30
2010,08,14,10,57,25.30
2010,08,14,10,58,25.40
2010,08,14,10,59,25.40
2010,08,14,11,00,25.40
2010,08,14,11,01,25.40
2010,08,14,11,02,25.40
2010,08,14,11,03,25.50
2010,08,14,11,04,25.60
2010,08,14,11,05,25.70
2010,08,14,11,06,25.70
2010,08,14,11,07,25.80
2010,08,14,11,08,25.90
2010,08,14,11,09,25.90
2010,08,14,11,10,25.90
2010,08,14,11,11,26.00
2010,08,14,11,12,26.10
2010,08,14,11,13,26.10
2010,08,14,11,14,26.10
2010,08,14,11,15,26.20
2010,08,14,11,16,26.20
2010,08,14,11,17,26.10
2010,08,14,11,18,26.10
2010,08,14,11,19,26.00
2010,08,14,11,20,26.00
2010,08,14,11,21,26.00
2010,08,14,11,22,26.00
2010,08,14,11,23,26.10
2010,08,14,11,24,26.10
2010,08,14,11,25,26.10
2010,08,14,11,26,26.20
2010,08,14,11,27,26.20
2010,08,14,11,28,26.20
2010,08,14,11,29,26.30
2010,08,14,11,30,26.40
2010,08,14,11,31,26.40
2010,08,14,11,32,26.50
2010,08,14,11,33,26.60
2010,08,14,11,34,26.70
2010,08,14,11,35,26.80
2010,08,14,11,36,26.90
2010,08,14,11,37,26.90
2010,08,14,11,38,26.90
2010,08,14,11,39,26.90
2010,08,14,11,40,26.90
2010,08,14,11,41,27.00
2010,08,14,11,42,27.00
2010,08,14,11,43,27.10
2010,08,14,11,44,27.10
2010,08,14,11,45,27.10
2010,08,14,11,46,27.10
2010,08,14,11,47,27.10
2010,08,14,11,48,27.10
2010,08,14,11,49,27.10
2010,08,14,11,50,27.20
2010,08,14,11,51,27.20
2010,08,14,11,52,27.20
2010,08,14,11,53,27.20
2010,08,14,11,54,27.20
2010,08,14,11,55,27.30
2010,08,14,11,56,27.40
2010,08,14,11,57,27.40
2010,08,14,11,58,27.50
2010,08,14,11,59,27.60
2010,08,14,12,00,27.70
2010,08,14,12,01,27.80
2010,08,14,12,02,27.80
2010,08,14,12,03,27.80
2010,08,14,12,04,27.90
2010,08,14,12,05,27.90
2010,08,14,12,06,28.00
2010,08,14,12,07,28.00
2010,08,14,12,08,28.00
2010,08,14,12,09,27.90
2010,08,14,12,10,27.90
2010,08,14,12,11,27.90
2010,08,14,12,12,27.80
2010,08,14,12,13,27.80
2010,08,14,12,14,27.80
2010,08,14,12,15,27.80
2010,08,14,12,16,27.80
2010,08,14,12,17,27.80
2010,08,14,12,18,27.80
2010,08,14,12,19,27.80
2010,08,14,12,20,27.80
2010,08,14,12,21,27.80
2010,08,14,12,22,27.80
2010,08,14,12,23,27.80
2010,08,14,12,24,27.80
2010,08,14,12,25,27.90
2010,08,14,12,26,27.90
2010,08,14,12,27,27.90
2010,08,14,12,28,27.90
2010,08,14,12,29,27.90
2010,08,14,12,30,27.90
2010,08,14,12,31,27.90
2010,08,14,12,32,27.90
2010,08,14,12,33,27.90
2010,08,14,12,34,28.00
2010,08,14,12,35,28.00
2010,08,14,12,36,28.10
2010,08,14,12,37,28.00
2010,08,14,12,38,28.00
2010,08,14,12,39,28.00
2010,08,14,12,40,28.00
2010,08,14,12,41,27.90
2010,08,14,12,42,27.90
2010,08,14,12,43,27.90
2010,08,14,12,44,27.90
2010,08,14,12,45,27.90
2010,08,14,12,46,27.90
2010,08,14,12,47,27.80
2010,08,14,12,48,27.90
2010,08,14,12,49,27.90
2010,08,14,12,50,28.00
2010,08,14,12,51,28.10
2010,08,14,12,52,28.20
2010,08,14,12,53,28.20
2010,08,14,12,54,28.30
2010,08,14,12,55,28.30
2010,08,14,12,56,28.30
2010,08,14,12,57,28.30
2010,08,14,12,58,28.30
2010,08,14,12,59,28.30
2010,08,14,13,00,28.30
2010,08,14,13,01,28.40
2010,08,14,13,02,28.40
2010,08,14,13,03,28.40
2010,08,14,13,04,28.40
2010,08,14,13,05,28.40
2010,08,14,13,06,28.40
2010,08,14,13,07,28.40
2010,08,14,13,08,28.50
2010,08,14,13,09,28.60
2010,08,14,13,10,28.60
2010,08,14,13,11,28.70
2010,08,14,13,12,28.70
2010,08,14,13,13,28.70
2010,08,14,13,14,28.60
2010,08,14,13,15,28.60
2010,08,14,13,16,28.50
2010,08,14,13,17,28.40
2010,08,14,13,18,28.40
2010,08,14,13,19,28.50
2010,08,14,13,20,28.50
2010,08,14,13,21,28.50
2010,08,14,13,22,28.60
2010,08,14,13,23,28.60
2010,08,14,13,24,28.70
2010,08,14,13,25,28.80
2010,08,14,13,26,28.90
2010,08,14,13,27,29.00
2010,08,14,13,28,29.00
2010,08,14,13,29,29.00
2010,08,14,13,30,29.10
2010,08,14,13,31,29.00
2010,08,14,13,32,29.00
2010,08,14,13,33,28.90
2010,08,14,13,34,28.90
2010,08,14,13,35,28.90
2010,08,14,13,36,28.90
2010,08,14,13,37,29.00
2010,08,14,13,38,29.00
2010,08,14,13,39,29.00
2010,08,14,13,40,29.10
2010,08,14,13,41,29.10
2010,08,14,13,42,29.20
2010,08,14,13,43,29.30
2010,08,14,13,44,29.30
2010,08,14,13,45,29.20
2010,08,14,13,46,29.20
2010,08,14,13,47,29.20
2010,08,14,13,48,29.20
2010,08,14,13,49,29.20
2010,08,14,13,50,29.30
2010,08,14,13,51,29.30
2010,08,14,13,52,29.40
2010,08,14,13,53,29.40
2010,08,14,13,54,29.40
2010,08,14,13,55,29.30
2010,08,14,13,56,29.30
2010,08,14,13,57,29.30
2010,08,14,13,58,29.30
2010,08,14,13,59,29.20
2010,08,14,14,00,29.10
2010,08,14,14,01,29.10
2010,08,14,14,02,29.10
2010,08,14,14,03,29.20
2010,08,14,14,04,29.20
2010,08,14,14,05,29.10
2010,08,14,14,06,29.10
2010,08,14,14,07,29.20
2010,08,14,14,08,29.30
2010,08,14,14,09,29.30
2010,08,14,14,10,29.40
2010,08,14,14,11,29.50
2010,08,14,14,12,29.60
2010,08,14,14,13,29.60
2010,08,14,14,14,29.60
2010,08,14,14,15,29.50
2010,08,14,14,16,29.50
2010,08,14,14,17,29.60
2010,08,14,14,18,29.70
2010,08,14,14,19,29.90
2010,08,14,14,20,30.00
2010,08,14,14,21,30.20
2010,08,14,14,22,30.20
2010,08,14,14,23,30.20
2010,08,14,14,24,30.20
2010,08,14,14,25,30.20
2010,08,14,14,26,30.20
2010,08,14,14,27,30.10
2010,08,14,14,28,30.10
2010,08,14,14,29,30.10
2010,08,14,14,30,30.20
2010,08,14,14,31,30.20
2010,08,14,14,32,30.20
2010,08,14,14,33,30.20
2010,08,14,14,34,30.10
2010,08,14,14,35,30.00
2010,08,14,14,36,29.80
2010,08,14,14,37,29.70
2010,08,14,14,38,29.70
2010,08,14,14,39,29.60
2010,08,14,14,40,29.60
2010,08,14,14,41,29.60
2010,08,14,14,42,29.60
2010,08,14,14,43,29.60
2010,08,14,14,44,29.60
2010,08,14,14,45,29.60
2010,08,14,14,46,29.70
2010,08,14,14,47,29.70
2010,08,14,14,48,29.80
2010,08,14,14,49,29.80
2010,08,14,14,50,29.80
2010,08,14,14,51,29.90
2010,08,14,14,52,29.90
2010,08,14,14,53,30.00
2010,08,14,14,54,30.10
2010,08,14,14,55,30.10
2010,08,14,14,56,30.10
2010,08,14,14,57,30.10
2010,08,14,14,58,30.10
2010,08,14,14,59,30.00
2010,08,14,15,00,30.00
2010,08,14,15,01,29.90
2010,08,14,15,02,29.90
2010,08,14,15,03,30.00
2010,08,14,15,04,30.10
2010,08,14,15,05,30.10
2010,08,14,15,06,30.20
2010,08,14,15,07,30.20
2010,08,14,15,08,30.30
2010,08,14,15,09,30.30
2010,08,14,15,10,30.40
2010,08,14,15,11,30.50
2010,08,14,15,12,30.60
2010,08,14,15,13,30.80
2010,08,14,15,14,30.90
2010,08,14,15,15,30.90
2010,08,14,15,16,30.90
2010,08,14,15,17,30.80
2010,08,14,15,18,30.70
2010,08,14,15,19,30.60
2010,08,14,15,20,30.60
2010,08,14,15,21,30.60
2010,08,14,15,22,30.80
2010,08,14,15,23,30.90
2010,08,14,15,24,30.90
2010,08,14,15,25,30.90
2010,08,14,15,26,30.90
2010,08,14,15,27,30.80
2010,08,14,15,28,30.80
2010,08,14,15,29,30.70
2010,08,14,15,30,30.70
2010,08,14,15,31,30.70
2010,08,14,15,32,30.70
2010,08,14,15,33,30.70
2010,08,14,15,34,30.70
2010,08,14,15,35,30.70
2010,08,14,15,36,30.70
2010,08,14,15,37,30.70
2010,08,14,15,38,30.70
2010,08,14,15,39,30.70
2010,08,14,15,40,30.70
2010,08,14,15,41,30.80
2010,08,14,15,42,30.80
2010,08,14,15,43,30.90
2010,08,14,15,44,30.90
2010,08,14,15,45,30.90
2010,08,14,15,46,30.80
2010,08,14,15,47,30.70
2010,08,14,15,48,30.60
2010,08,14,15,49,30.60
2010,08,14,15,50,30.60
2010,08,14,15,51,30.60
2010,08,14,15,52,30.60
2010,08,14,15,53,30.50
2010,08,14,15,54,30.50
2010,08,14,15,55,30.50
2010,08,14,15,56,30.50
2010,08,14,15,57,30.50
2010,08,14,15,58,30.60
2010,08,14,15,59,30.60
2010,08,14,16,00,30.60
2010,08,14,16,01,30.60
2010,08,14,16,02,30.60
2010,08,14,16,03,30.70
2010,08,14,16,04,30.70
2010,08,14,16,05,30.80
2010,08,14,16,06,30.80
2010,08,14,16,07,30.70
2010,08,14,16,08,30.70
2010,08,14,16,09,30.70
2010,08,14,16,10,30.70
2010,08,14,16,11,30.70
2010,08,14,16,12,30.70
2010,08,14,16,13,30.70
2010,08,14,16,14,30.70
2010,08,14,16,15,30.70
2010,08,14,16,16,30.80
2010,08,14,16,17,30.80
2010,08,14,16,18,30.80
2010,08,14,16,19,30.80
2010,08,14,16,20,30.80
2010,08,14,16,21,30.80
2010,08,14,16,22,30.80
2010,08,14,16,23,30.80
2010,08,14,16,24,30.80
2010,08,14,16,25,30.80
2010,08,14,16,26,30.80
2010,08,14,16,27,30.80
2010,08,14,16,28,30.80
2010,08,14,16,29,30.80
2010,08,14,16,30,30.80
2010,08,14,16,31,30.80
2010,08,14,16,32,30.80
2010,08,14,16,33,30.80
2010,08,14,16,34,30.80
2010,08,14,16,35,30.90
2010,08,14,16,36,30.90
2010,08,14,16,37,30.90
2010,08,14,16,38,30.90
2010,08,14,16,39,30.90
2010,08,14,16,40,31.00
2010,08,14,16,41,31.00
2010,08,14,16,42,31.00
2010,08,14,16,43,31.10
2010,08,14,16,44,31.10
2010,08,14,16,45,31.00
2010,08,14,16,46,31.00
2010,08,14,16,47,30.90
2010,08,14,16,48,30.90
2010,08,14,16,49,30.80
2010,08,14,16,50,30.80
2010,08,14,16,51,30.80
2010,08,14,16,52,30.70
2010,08,14,16,53,30.70
2010,08,14,16,54,30.70
2010,08,14,16,55,30.70
2010,08,14,16,56,30.70
2010,08,14,16,57,30.70
2010,08,14,16,58,30.70
2010,08,14,16,59,30.70
2010,08,14,17,00,30.80
2010,08,14,17,01,30.80
2010,08,14,17,02,30.90
2010,08,14,17,03,30.90
2010,08,14,17,04,31.00
2010,08,14,17,05,31.10
2010,08,14,17,06,31.10
2010,08,14,17,07,31.10
2010,08,14,17,08,31.10
2010,08,14,17,09,31.10
2010,08,14,17,10,31.10
2010,08,14,17,11,31.10
2010,08,14,17,12,31.10
2010,08,14,17,13,31.10
2010,08,14,17,14,31.10
2010,08,14,17,15,31.10
2010,08,14,17,16,31.10
2010,08,14,17,17,31.10
2010,08,14,17,18,31.10
2010,08,14,17,19,31.20